CEB112 RPLL-VHHH

Flight info

Callsign CEB112
Flight time N/A
Altitude 38000
Route CAB4V CAB A461 NOMAN V533 BETTY
Aircraft A339/H-SADE1E2E3GHIJ3J5M1P2RWXY/LB2D1

Departure

Time N/A
Airport Ninoy Aquino International Airport (RPLL)

Arrival

Time 2026-05-05 10:43
Airport Hong Kong International Airport (VHHH)
Time Latitude Longitude Altitude Speed Heading
2026-05-05 10:12 20.42237 115.81227 37944 ft 439 kts 296°
2026-05-05 10:13 20.45045 115.75466 37945 ft 439 kts 296°
2026-05-05 10:13 20.47863 115.69677 37946 ft 438 kts 296°
2026-05-05 10:14 20.50660 115.63927 37947 ft 438 kts 296°
2026-05-05 10:14 20.53499 115.58192 37945 ft 438 kts 299°
2026-05-05 10:15 20.56975 115.52879 37944 ft 440 kts 307°
2026-05-05 10:15 20.61215 115.48114 37944 ft 441 kts 313°
2026-05-05 10:16 20.65602 115.43540 37946 ft 441 kts 313°
2026-05-05 10:16 20.69967 115.38959 37952 ft 441 kts 313°
2026-05-05 10:17 20.74327 115.34386 37950 ft 440 kts 313°
2026-05-05 10:17 20.78684 115.29815 37950 ft 440 kts 313°
2026-05-05 10:18 20.83062 115.25217 37948 ft 440 kts 313°
2026-05-05 10:18 20.87417 115.20640 37952 ft 440 kts 312°
2026-05-05 10:19 20.91774 115.16058 37950 ft 439 kts 312°
2026-05-05 10:19 20.96128 115.11475 37952 ft 439 kts 312°
2026-05-05 10:20 21.00464 115.06905 37953 ft 439 kts 312°
2026-05-05 10:20 21.04833 115.02299 37955 ft 439 kts 312°
2026-05-05 10:21 21.09169 114.97723 37953 ft 439 kts 312°
2026-05-05 10:21 21.13527 114.93122 37807 ft 437 kts 312°
2026-05-05 10:22 21.15693 114.90833 37175 ft 438 kts 312°
2026-05-05 10:22 21.17880 114.88520 36173 ft 444 kts 312°
2026-05-05 10:22 21.20080 114.86192 34959 ft 453 kts 312°
2026-05-05 10:22 21.22344 114.83795 33638 ft 459 kts 311°
2026-05-05 10:23 21.24634 114.81371 32226 ft 463 kts 311°
2026-05-05 10:23 21.26920 114.78950 30842 ft 466 kts 312°
2026-05-05 10:23 21.29245 114.76487 29436 ft 469 kts 312°
2026-05-05 10:23 21.31558 114.74038 28384 ft 464 kts 312°
2026-05-05 10:24 21.33843 114.71618 27571 ft 458 kts 312°
2026-05-05 10:24 21.36076 114.69249 26850 ft 453 kts 311°
2026-05-05 10:24 21.38309 114.66880 26127 ft 448 kts 311°
2026-05-05 10:24 21.40520 114.64531 25401 ft 444 kts 312°
2026-05-05 10:25 21.42709 114.62204 24694 ft 440 kts 311°
2026-05-05 10:25 21.44884 114.59891 23998 ft 437 kts 312°
2026-05-05 10:25 21.47129 114.57743 23238 ft 437 kts 319°
2026-05-05 10:25 21.49683 114.55946 22483 ft 436 kts 327°
2026-05-05 10:26 21.52408 114.54585 21746 ft 436 kts 335°
2026-05-05 10:26 21.55289 114.53591 21418 ft 424 kts 338°
2026-05-05 10:26 21.58030 114.52662 21243 ft 406 kts 337°
2026-05-05 10:26 21.60537 114.51471 21043 ft 383 kts 326°
2026-05-05 10:27 21.62700 114.49876 20509 ft 372 kts 316°
2026-05-05 10:27 21.64503 114.47953 19887 ft 366 kts 308°
2026-05-05 10:27 21.66210 114.45918 19299 ft 363 kts 308°
2026-05-05 10:27 21.67923 114.43911 18705 ft 361 kts 309°
2026-05-05 10:28 21.69612 114.41950 18117 ft 358 kts 309°
2026-05-05 10:28 21.71308 114.39988 17449 ft 355 kts 309°
2026-05-05 10:28 21.72964 114.38072 16827 ft 352 kts 309°
2026-05-05 10:28 21.74634 114.36140 16186 ft 350 kts 309°
2026-05-05 10:29 21.76289 114.34225 15548 ft 347 kts 309°
2026-05-05 10:29 21.77933 114.32322 14928 ft 345 kts 309°
2026-05-05 10:29 21.79560 114.30438 14320 ft 343 kts 310°
2026-05-05 10:29 21.81157 114.28587 13706 ft 341 kts 310°
2026-05-05 10:30 21.82770 114.26719 13048 ft 338 kts 310°
2026-05-05 10:30 21.84365 114.24870 12383 ft 336 kts 310°
2026-05-05 10:30 21.85953 114.23029 11743 ft 333 kts 310°
2026-05-05 10:30 21.87529 114.21200 11117 ft 331 kts 310°
2026-05-05 10:31 21.89021 114.19375 10468 ft 328 kts 305°
2026-05-05 10:31 21.90257 114.17324 9831 ft 324 kts 296°
2026-05-05 10:31 21.91316 114.15202 9242 ft 317 kts 296°
2026-05-05 10:31 21.92379 114.13109 8325 ft 323 kts 296°
2026-05-05 10:32 21.93471 114.10989 7614 ft 322 kts 296°
2026-05-05 10:32 21.94561 114.08880 6954 ft 318 kts 297°
2026-05-05 10:32 21.95614 114.06845 6644 ft 307 kts 297°
2026-05-05 10:32 21.96638 114.04875 6544 ft 295 kts 297°
2026-05-05 10:33 21.97615 114.02995 6407 ft 277 kts 297°
2026-05-05 10:33 21.98518 114.01254 6237 ft 259 kts 296°
2026-05-05 10:33 21.99367 113.99616 6094 ft 243 kts 296°
2026-05-05 10:33 22.00182 113.98039 6014 ft 245 kts 296°
2026-05-05 10:34 22.01049 113.96342 6005 ft 272 kts 296°
2026-05-05 10:34 22.01972 113.94541 6006 ft 274 kts 296°
2026-05-05 10:34 22.02903 113.92738 5995 ft 275 kts 296°
2026-05-05 10:34 22.03823 113.90951 5993 ft 275 kts 297°
2026-05-05 10:35 22.04753 113.89147 6005 ft 275 kts 297°
2026-05-05 10:35 22.05685 113.87340 6004 ft 275 kts 297°
2026-05-05 10:35 22.06616 113.85536 6005 ft 274 kts 297°
2026-05-05 10:35 22.07536 113.83749 6001 ft 274 kts 297°
2026-05-05 10:36 22.08468 113.81937 5944 ft 274 kts 297°
2026-05-05 10:36 22.09391 113.80140 5559 ft 276 kts 297°
2026-05-05 10:36 22.10381 113.78359 4980 ft 279 kts 306°
2026-05-05 10:36 22.11806 113.76973 4379 ft 280 kts 327°
2026-05-05 10:37 22.13571 113.76069 3725 ft 281 kts 336°
2026-05-05 10:37 22.15365 113.75226 3113 ft 279 kts 336°
2026-05-05 10:37 22.17132 113.74370 2539 ft 276 kts 336°
2026-05-05 10:37 22.18811 113.73532 2347 ft 258 kts 336°
2026-05-05 10:38 22.20394 113.72739 2197 ft 241 kts 337°
2026-05-05 10:38 22.21856 113.72010 2071 ft 226 kts 338°
2026-05-05 10:38 22.23346 113.71706 2013 ft 219 kts
2026-05-05 10:38 22.24762 113.72262 2008 ft 215 kts 38°
2026-05-05 10:39 22.25869 113.73275 1989 ft 201 kts 46°
2026-05-05 10:39 22.26824 113.74270 2016 ft 183 kts 47°
2026-05-05 10:39 22.27716 113.75244 1989 ft 183 kts 53°
2026-05-05 10:39 22.28344 113.76424 1985 ft 181 kts 69°
2026-05-05 10:40 22.28782 113.77702 1977 ft 179 kts 74°
2026-05-05 10:40 22.29170 113.78957 1818 ft 178 kts 73°
2026-05-05 10:40 22.29575 113.80194 1566 ft 170 kts 72°
2026-05-05 10:40 22.29945 113.81358 1349 ft 156 kts 72°
2026-05-05 10:41 22.30308 113.82473 1139 ft 160 kts 73°
2026-05-05 10:41 22.30657 113.83566 926 ft 146 kts 72°
2026-05-05 10:41 22.30765 113.83901 869 ft 141 kts 72°
2026-05-05 10:41 22.30799 113.84005 838 ft 140 kts 72°
2026-05-05 10:42 22.31443 113.86010 476 ft 133 kts 71°
2026-05-05 10:42 22.31760 113.86984 311 ft 144 kts 71°
2026-05-05 10:42 22.32089 113.87995 115 ft 138 kts 72°
2026-05-05 10:43 22.32392 113.88936 44 ft 113 kts 71°
2026-05-05 10:43 22.32610 113.89630 43 ft 85 kts 70°
2026-05-05 10:43 22.32776 113.90128 43 ft 62 kts 73°
2026-05-05 10:43 22.32808 113.90513 42 ft 32 kts 101°
2026-05-05 10:44 22.32792 113.90740 43 ft 29 kts 76°
2026-05-05 10:44 22.32857 113.90945 44 ft 29 kts 71°
2026-05-05 10:44 22.32921 113.91142 44 ft 27 kts 70°
2026-05-05 10:44 22.32980 113.91328 44 ft 25 kts 71°
2026-05-05 10:45 22.33040 113.91503 44 ft 24 kts 69°
2026-05-05 10:45 22.33093 113.91671 43 ft 23 kts 71°
2026-05-05 10:45 22.33128 113.91782 43 ft 23 kts 71°
2026-05-05 10:45 22.33205 113.92014 43 ft 28 kts 72°
2026-05-05 10:46 22.33192 113.92110 41 ft 17 kts 136°
2026-05-05 10:46 22.33049 113.92162 43 ft 27 kts 161°
2026-05-05 10:46 22.32860 113.92236 43 ft 29 kts 160°
2026-05-05 10:46 22.32676 113.92311 43 ft 28 kts 160°
2026-05-05 10:47 22.32492 113.92372 43 ft 27 kts 161°
2026-05-05 10:47 22.32316 113.92440 43 ft 26 kts 161°
2026-05-05 10:47 22.32174 113.92510 41 ft 15 kts 132°
2026-05-05 10:47 22.32188 113.92612 43 ft 16 kts 70°
2026-05-05 10:48 22.32109 113.92714 42 ft 25 kts 157°
2026-05-05 10:48 22.31938 113.92776 42 ft 23 kts 162°
2026-05-05 10:48 22.31855 113.92709 43 ft 15 kts 249°
2026-05-05 10:48 22.31800 113.92558 43 ft 29 kts 251°
2026-05-05 10:49 22.31732 113.92338 43 ft 31 kts 251°
2026-05-05 10:49 22.31662 113.92115 42 ft 31 kts 250°
2026-05-05 10:49 22.31528 113.92051 43 ft 23 kts 161°
2026-05-05 10:49 22.31376 113.92111 43 ft 23 kts 161°
2026-05-05 10:50 22.31223 113.92163 43 ft 23 kts 159°
2026-05-05 10:50 22.31074 113.92225 43 ft 23 kts 159°
2026-05-05 10:50 22.30924 113.92281 43 ft 18 kts 159°
2026-05-05 10:50 22.30918 113.92364 43 ft 12 kts 45°
2026-05-05 10:51 22.30997 113.92408 43 ft 14 kts 26°
2026-05-05 10:51 22.31036 113.92475 43 ft 10 kts 106°
2026-05-05 10:51 22.31030 113.92485 43 ft 0 kts 119°
2026-05-05 10:51 22.31025 113.92503 43 ft 4 kts 110°
2026-05-05 10:52 22.31018 113.92521 43 ft 1 kts 113°
2026-05-05 10:52 22.31015 113.92528 43 ft 1 kts 116°
2026-05-05 10:52 22.31014 113.92530 43 ft 0 kts 116°